Preview of NWS' New Version of Forecast
This preview is not operational and should not be used for support decisions.

Regional Weather Roundup (RWR)

Issued by Philadelphia/Mt Holly (PHI)

                            
000
ASUS41 KPHI 220412
RWRPHI

REGIONAL WEATHER ROUNDUP
NATIONAL WEATHER SERVICE MOUNT HOLLY NJ
1200 AM EDT FRI MAR 22 2019

NOTE:  "FAIR" INDICATES FEW OR NO CLOUDS BELOW 12,000 FEET WITH NO
SIGNIFICANT WEATHER AND/OR OBSTRUCTIONS TO VISIBILITY.

 * = STATION DOES NOT REPORT PRECIPITATION (E.G. RAIN, SNOW, ETC.) 
        OR FOG.

NJZ015>026-220500-
SOUTHERN NEW JERSEY
  
CITY           SKY/WX    TMP DP  RH WIND       PRES   REMARKS
POMONA         NOT AVBL                                               
MILLVILLE      CLOUDY    51  49  92 E14       29.41F                  
TRENTON        NOT AVBL                                               

$$
NJZ001>014-220500-
NORTHERN NEW JERSEY
  
CITY           SKY/WX    TMP DP  RH WIND       PRES   REMARKS
ANDOVER*       NOT AVBL                                               
NEWARK         NOT AVBL                                               
TOMS RIVER*    CLOUDY    48  48 100 E16G28    29.46F                  

$$
PAZ043-044-047-054-055-060>062-066>071-220500-
EASTERN PENNSYLVANIA
  
CITY           SKY/WX    TMP DP  RH WIND       PRES   REMARKS
PHILADELPHIA   LGT RAIN  47  45  93 NE18G30   29.46F                  
NORTH PHILA    LGT RAIN  47  43  86 NE23G29   29.50F                  
POTTSTOWN      LGT RAIN  43  42  97 NE20G25   29.52F                  
READING        LGT RAIN  44  43  96 N13       29.53F                  
ALLENTOWN      NOT AVBL                                               
MOUNT POCONO   NOT AVBL                                               
HAZLETON       CLOUDY    39  36  87 NE7       29.60F WCI  34          
LEHIGHTON      RAIN      41  39  93 NE3       29.59F                  
WILKES BARRE   NOT AVBL                                               

$$
DEZALL-MDZ008-012-015-019-020-220500-
DELAWARE AND EASTERN MARYLAND
  
CITY           SKY/WX    TMP DP  RH WIND       PRES   REMARKS
WILMINGTON     NOT AVBL                                               
GEORGETOWN     CLOUDY    53  51  93 SW9       29.39F                  
EASTON         DRIZZLE   51  50  96 W9        29.45F                  
PATUXENT       CLOUDY    43  43 100 W20G33    29.49S FOG              
OCEAN CITY     NOT AVBL                                               
WALLOPS ISLAND NOT AVBL                                               
SALISBURY      LGT RAIN  45  44  97 SW16G26   29.43S FOG              

$$
PAZ001-021-NYZ056-072-MDZ011-DCZ001-220500-
OTHER NEARBY LOCATIONS
  
CITY           SKY/WX    TMP DP  RH WIND       PRES   REMARKS
BINGHAMTON     NOT AVBL                                               
NEW YORK CITY  HVY RAIN  41  39  93 NE10G23   29.63F FOG              
BALTIMORE      RAIN      46  45  96 NW14G22   29.48F FOG              
WASHINGTON DC  NOT AVBL                                               

$$